Regional Weather Roundup
Issued by NWS

Home | Current Version | Previous Version | Graphics & Text | Print | Product List | Glossary On
Versions: 1 2 3 4 5 6 7 8 9 10 11 12 13 14 15 16 17 18 19 20 21 22 23 24 25 26 27 28 29 30 31 32 33 34 35 36 37 38 39 40 41 42 43 44 45 46 47 48 49 50
000
ASUS43 KLOT 121610
RWRIL

ILLINOIS REGIONAL WEATHER ROUNDUP
NATIONAL WEATHER SERVICE CHICAGO/ROMEOVILLE IL
1100 AM CDT SAT JUL 12 2014

NOTE: "FAIR" INDICATES FEW OR NO CLOUDS BELOW 12,000 FEET WITH NO
SIGNIFICANT WEATHER AND/OR OBSTRUCTIONS TO VISIBILITY.

* THESE STATIONS ARE NOT UNDER NWS QUALITY CONTROL. THEY ALSO MAY NOT
  REPORT WEATHER SUCH AS PRECIPITATION OR FOG.

ILZ001-002-007-009-015-016-024-121700-
NORTHWEST ILLINOIS

CITY           SKY/WX    TMP DP  RH WIND       PRES   REMARKS
MOLINE         MOSUNNY   79  71  76 VRB6      30.02S HX  82
STERLING*      CLOUDY    73  70  88 CALM      30.04R
SAVANNA*       CLOUDY    76  72  88 S7        30.01R
$$

ILZ003-004-008-010-011-017-018-121700-
NORTH CENTRAL ILLINOIS

CITY           SKY/WX    TMP DP  RH WIND       PRES   REMARKS
ROCKFORD       CLOUDY    73  69  87 SE10      30.00R FOG
FREEPORT*      CLOUDY    71  68  90 CALM      30.04R
ROCHELLE*      CLOUDY    74  69  86 S8        30.03R
DE KALB*       CLOUDY    70  69  95 SE12      30.02S FOG
PERU*          CLOUDY    73  71  92 S9        30.05R
$$

ILZ005-006-012>014-019>023-121700-
NORTHEAST ILLINOIS

CITY           SKY/WX    TMP DP  RH WIND       PRES   REMARKS
CHICAGO-OHARE  LGT RAIN  72  67  84 S13       30.05S
CHICAGO-MIDWAY LGT RAIN  73  71  93 S12G20    30.05S
AURORA         LGT RAIN  72  69  90 SE13      30.03S FOG
LANSING*       RAIN      70  68  94 SW12      30.07F
JOLIET*        LGT RAIN  71  69  94 S9        30.07R
WAUKEGAN       CLOUDY    73  68  84 S9        30.02S
DUPAGE AIRPORT LGT RAIN  72  70  93 SE8       30.04R
KANKAKEE*      RAIN      69  69  97 S13       30.11R
WHEELING       LGT RAIN  73  70  90 S13       30.04S
MORRIS*        LGT RAIN  72  72 100 S13G18    30.06R
ROMEOVILLE*    LGT RAIN  71  71 100 S10       30.06R
NORTHERLY ISL    N/A     71  68  90 S8          N/A
$$

LMZ740>746-121700-
SOUTHERN LAKE MICHIGAN

STATION/POSITION SKY/WX   TEMP    WIND        PRES    VSBY  WAVE
                          AIR SEA DIR/SP/G                  HT/PER
                          (F)     (DEG/KT/KT) (MB)    (MI)  (FT/S)
SOUTHERN BUOY              63 63  140/  6/  8 1017.5R         1/ 3
WAUKEGAN HARBOR            71     190/ 12/ 13 1017.6S
HARRISON CRIB              69     200/ 14/ 16   N/A
BURNHAM HARBOR             71     160/  9/ 16   N/A
CALUMET HARBOR             69     220/  3/ 10 1018.3F
BURNS HARBOR               70     220/  9/ 20 1019.3
MICHIGAN CITY              71     170/ 12/ 17   N/A
$$

ILZ025>027-034>036-040-047-049-050-058-095>099-121700-
WEST-CENTRAL ILLINOIS

CITY           SKY/WX    TMP DP  RH WIND       PRES   REMARKS
QUINCY         PTSUNNY   81  71  71 W8        30.07R HX  85
GALESBURG*     MOSUNNY   85  73  67 SE5       30.04S HX  91
MACOMB*        PTSUNNY   83  75  77 S6        30.07R HX  89
JACKSONVILLE*  MOSUNNY   86  76  71 SW8       30.08S HX  96
PITTSFIELD*    PTSUNNY   83  72  68 SW7       30.09R HX  88
$$

ILZ028>032-037-038-041>044-048-051>054-059>061-121700-
CENTRAL ILLINOIS

CITY           SKY/WX    TMP DP  RH WIND       PRES   REMARKS
PONTIAC        CLOUDY    73  72  94 S15G23    30.07S
BLOOMINGTON    CLOUDY    71  68  90 SE14      30.11F
DECATUR        CLOUDY    78  73  84 S9        30.11R HX  81
PEORIA         CLOUDY    82  68  62 SE5       30.05F HX  85
LACON*         CLOUDY    76  70  82 SE8       30.04S
LINCOLN*       PTSUNNY   83  74  74 S7        30.05S HX  89
SPRINGFIELD    MOSUNNY   87  75  67 W7        30.08S HX  96
TAYLORVILLE    PTSUNNY   79  73  83 S7        30.10S HX  82
$$

ILZ033-039-045-046-055>057-062-063-121700-
EAST-CENTRAL ILLINOIS

CITY           SKY/WX    TMP DP  RH WIND       PRES   REMARKS
CHAMPAIGN      CLOUDY    71  70  96 E8        30.15S
RANTOUL*       LGT RAIN  71  68  91 SE9       30.15S
MATTOON        CLOUDY    72  72 100 S9        30.13R
PARIS*         RAIN      70  69  96 E3        30.16R
$$

ILZ079-100>102-121700-
SOUTHWEST ILLINOIS

CITY           SKY/WX    TMP DP  RH WIND       PRES   REMARKS
ALTON          CLOUDY    82  77  83 SW9       30.10S HX  91
CAHOKIA*       PTSUNNY   84  74  71 SW5       30.10R HX  91
SPARTA*        MOSUNNY   82  75  78 SW5       30.12S HX  89
$$

ILZ064>066-069>071-074>076-080>082-084>086-088>090-092>094-121700-
SOUTH-CENTRAL ILLINOIS

CITY           SKY/WX    TMP DP  RH WIND       PRES   REMARKS
CARBONDALE     PTSUNNY   86  74  67 SW10      30.12F HX  94
CAIRO*         MOSUNNY   87  73  62 S6        30.14F HX  94
MARION         PTSUNNY   86  75  70 S12       30.13F HX  95
MT. VERNON     CLOUDY    82  73  74 S9        30.13F HX  88
CENTRALIA*     CLOUDY    85  72  65 SW6       30.12R HX  90
SALEM*         CLOUDY    82  75  79 S3        30.13R HX  88
METROPOLIS*    PTSUNNY   85  68  55 SW9       30.15S HX  89
$$

ILZ067-068-072-073-078-083-087-091-121700-
SOUTHEAST ILLINOIS

CITY           SKY/WX    TMP DP  RH WIND       PRES   REMARKS
FLORA*         CLOUDY    76  72  88 E9        30.15R
HARRISBURG*    CLOUDY    81  74  80 SW7       30.15S HX  86
ROBINSON*      LGT RAIN  72  71  96 S6        30.16F
CARMI*         CLOUDY    81  75  81 S5        30.14S HX  87
$$

ABBREVIATIONS USED IN REMARKS
   TC - TEMPERATURE IN CELSIUS
  WCI - WIND CHILL INDEX
   HX - HEAT INDEX
  VSB - VISIBILITY
$$




USA.gov is the U.S. government's official web portal to all federal, state and local government web resources and services.